Content
SEND FEEDBACK

Daily
Averages
Monthly
Summary
United States of America

BEAVER ISLAND, MICHIGAN


Home > North America > United States > Michigan
Elevation: 627 feet     Latitude: 45 43N     Longitude: 085 31W

WEATHER
 
SELECT A DAY
Number of Records: 321,191;   Date Range: 9/12/01 - 9/20/14
 
SHARE

PRINT THIS DATA

[ ← Previous Day ]
WEATHER ALMANAC - FEBRUARY 13, 2013
[ Next Day → ]
[ °C ]   °F
Weather ElementAverageHighLow
Temperature31.8 °F34.3 °F (10:36 pm)27.7 °F (12:36 am)
Dewpoint28.5 °F32 °F (9:35 pm)22.1 °F (12:55 am)
Humidity87.6 %92 % (4:35 pm)79 % (12:55 am)
Barometer29.67 in29.78 in (12:36 am)29.63 in (2:55 pm)
Wind Speed11.5 mph17.3 mph (10:56 am)
Wind Gust21.9 mph (10:56 am)
Weather ElementAverage
Visibility7.8 mi
Wind DirectionSW (228.3 °)

Weather ElementTotal
Precipitation---
Heating Degree Days34 (Base 65)
Averaged from 71 records on February 13, 2013
WEATHER CONDITIONS BREAKOUT
WIND DIRECTION BREAKOUT
WEATHER BY HOUR - FEBRUARY 13, 2013
[ °C ]   °F
Local TimeTemperatureDewpointHumidityBarometerVisibilityWind DirectionWind SpeedGust SpeedPrecipitationEventsConditions
12:36 AM27.7 °F22.3 °F80 %29.78 in10.0 miWSW (240°)15.0 mphOvercast
12:55 AM27.9 °F22.1 °F79 %29.78 in10.0 miSW (230°)9.2 mphOvercast
1:16 AM28.2 °F22.8 °F80 %29.77 in10.0 miSW (230°)12.7 mph19.6 mphMostly Cloudy
1:35 AM28.2 °F23.0 °F81 %29.76 in10.0 miWSW (240°)13.8 mph19.6 mphOvercast
1:55 AM28.9 °F23.5 °F80 %29.75 in10.0 miWSW (240°)13.8 mph20.7 mphOvercast
2:16 AM29.1 °F23.9 °F81 %29.75 in10.0 miSW (230°)11.5 mphOvercast
2:35 AM29.3 °F24.4 °F82 %29.74 in10.0 miSW (230°)12.7 mphOvercast
2:55 AM30.0 °F25.2 °F82 %29.74 in10.0 miSW (230°)11.5 mph18.4 mphOvercast
3:16 AM30.7 °F26.1 °F83 %29.73 in10.0 miSW (230°)11.5 mph19.6 mphOvercast
3:35 AM30.7 °F26.1 °F83 %29.72 in10.0 miSW (230°)13.8 mphOvercast
3:55 AM30.7 °F26.2 °F83 %29.72 in10.0 miSW (230°)13.8 mph19.6 mphOvercast
4:16 AM30.7 °F26.1 °F83 %29.71 in10.0 miSW (230°)11.5 mphOvercast
4:35 AM30.0 °F25.5 °F83 %29.71 in10.0 miSW (230°)10.4 mphScattered Clouds
4:56 AM29.5 °F25.7 °F86 %29.71 in10.0 miSW (230°)10.4 mphScattered Clouds
5:16 AM29.3 °F25.7 °F86 %29.70 in10.0 miSW (230°)10.4 mph17.3 mphScattered Clouds
5:35 AM29.3 °F25.7 °F86 %29.70 in10.0 miSW (230°)12.7 mph17.3 mphScattered Clouds
5:56 AM30.2 °F26.4 °F86 %29.69 in10.0 miSW (230°)11.5 mph18.4 mphMostly Cloudy
6:16 AM30.7 °F27.0 °F86 %29.68 in10.0 miSW (230°)10.4 mphMostly Cloudy
6:35 AM30.4 °F26.8 °F86 %29.68 in10.0 miWSW (240°)12.7 mphScattered Clouds
6:56 AM30.7 °F27.3 °F87 %29.68 in10.0 miWSW (240°)12.7 mph19.6 mphOvercast
7:15 AM30.9 °F27.5 °F87 %29.68 in10.0 miSW (230°)12.7 mph19.6 mphOvercast
7:36 AM31.1 °F27.9 °F88 %29.68 in10.0 miWSW (240°)12.7 mphOvercast
7:56 AM31.3 °F28.0 °F88 %29.67 in7.0 miWSW (240°)12.7 mph17.3 mphOvercast
8:15 AM31.1 °F28.0 °F88 %29.68 in7.0 miWSW (240°)13.8 mphOvercast
8:36 AM31.1 °F28.2 °F89 %29.67 in7.0 miSW (220°)11.5 mph17.3 mphOvercast
8:56 AM31.5 °F28.0 °F87 %29.67 in7.0 miSW (230°)11.5 mph18.4 mphOvercast
9:15 AM31.5 °F28.4 °F88 %29.67 in7.0 miSW (230°)11.5 mph18.4 mphOvercast
9:35 AM31.5 °F28.6 °F89 %29.66 in7.0 miSW (230°)12.7 mphOvercast
9:56 AM31.6 °F28.8 °F89 %29.66 in5.0 miWSW (240°)11.5 mphOvercast
10:15 AM31.6 °F28.4 °F88 %29.66 in7.0 miWSW (240°)12.7 mphOvercast
10:35 AM31.5 °F28.4 °F88 %29.65 in5.0 miWSW (240°)12.7 mphOvercast
10:56 AM31.8 °F28.8 °F88 %29.66 in5.0 miWSW (250°)17.3 mph21.9 mphOvercast
11:15 AM31.6 °F28.4 °F88 %29.66 in7.0 miWSW (240°)13.8 mph18.4 mphMostly Cloudy
11:36 AM32.0 °F28.4 °F87 %29.66 in7.0 miWSW (240°)13.8 mph17.3 mphMostly Cloudy
11:56 AM32.4 °F28.9 °F87 %29.66 in7.0 miWSW (250°)16.1 mphMostly Cloudy
12:15 PM32.0 °F28.2 °F86 %29.66 in5.0 miWSW (240°)16.1 mph19.6 mphOvercast
12:36 PM32.0 °F28.4 °F87 %29.65 in7.0 miWSW (240°)16.1 mph19.6 mphMostly Cloudy
12:55 PM32.5 °F28.8 °F86 %29.65 in7.0 miSW (230°)16.1 mph21.9 mphOvercast
1:16 PM32.0 °F28.4 °F87 %29.64 in7.0 miSW (230°)13.8 mph20.7 mphOvercast
1:36 PM32.0 °F28.4 °F87 %29.64 in5.0 miSW (230°)11.5 mphOvercast
1:55 PM32.0 °F28.9 °F88 %29.64 in7.0 miWSW (240°)15.0 mph19.6 mphOvercast
2:16 PM32.0 °F28.9 °F88 %29.64 in7.0 miWSW (240°)12.7 mph18.4 mphOvercast
2:36 PM32.0 °F28.9 °F88 %29.64 in7.0 miWSW (240°)15.0 mph20.7 mphOvercast
2:55 PM32.4 °F29.3 °F88 %29.63 in7.0 miSW (230°)15.0 mph20.7 mphOvercast
3:16 PM32.5 °F29.8 °F90 %29.63 in7.0 miWSW (240°)13.8 mphOvercast
3:35 PM32.9 °F29.8 °F88 %29.64 in7.0 miSW (230°)11.5 mphOvercast
3:55 PM32.9 °F30.0 °F89 %29.64 in5.0 miSW (230°)10.4 mphOvercast
4:16 PM32.9 °F30.6 °F91 %29.65 in5.0 miWSW (250°)10.4 mph16.1 mphOvercast
4:35 PM32.9 °F30.7 °F92 %29.65 in5.0 miWSW (240°)12.7 mphOvercast
4:55 PM33.3 °F31.1 °F92 %29.65 in5.0 miSW (230°)11.5 mphOvercast
5:15 PM33.1 °F30.7 °F91 %29.64 in7.0 miSW (230°)13.8 mph19.6 mphOvercast
5:35 PM33.1 °F30.7 °F91 %29.65 in7.0 miSW (230°)9.2 mphOvercast
5:56 PM33.1 °F30.7 °F91 %29.64 in7.0 miSW (220°)10.4 mph16.1 mphOvercast
6:15 PM33.3 °F31.1 °F92 %29.64 in7.0 miSW (220°)12.7 mph16.1 mphOvercast
6:35 PM33.4 °F31.3 °F92 %29.64 in7.0 miSW (220°)11.5 mphOvercast
6:56 PM33.6 °F31.1 °F90 %29.65 in7.0 miSW (220°)10.4 mphOvercast
7:15 PM33.8 °F31.1 °F90 %29.64 in7.0 miSSW (210°)9.2 mphOvercast
7:36 PM33.8 °F31.1 °F90 %29.65 in7.0 miSSW (210°)11.5 mphOvercast
7:55 PM33.8 °F31.1 °F90 %29.65 in10.0 miSSW (210°)8.1 mphOvercast
8:16 PM33.8 °F30.9 °F89 %29.65 in10.0 miSSW (210°)6.9 mphOvercast
8:35 PM33.8 °F31.1 °F90 %29.65 in10.0 miSouth (190°)5.8 mphOvercast
8:56 PM33.8 °F31.3 °F90 %29.65 in7.0 miSouth (190°)4.6 mphOvercast
9:16 PM33.8 °F31.8 °F92 %29.65 in7.0 miSSW (200°)6.9 mphOvercast
9:35 PM34.2 °F32.0 °F92 %29.65 in7.0 miSSW (210°)8.1 mphOvercast
9:56 PM34.2 °F32.0 °F92 %29.65 in7.0 miSouth (190°)6.9 mphOvercast
10:15 PM34.2 °F32.0 °F92 %29.65 in7.0 miSSW (210°)10.4 mphOvercast
10:36 PM34.3 °F32.0 °F91 %29.65 in7.0 miSW (220°)8.1 mphOvercast
10:56 PM34.2 °F32.0 °F92 %29.64 in7.0 miSW (220°)6.9 mphOvercast
11:15 PM33.8 °F31.5 °F91 %29.63 in7.0 miSW (220°)4.6 mphOvercast
11:36 PM33.8 °F31.1 °F90 %29.63 in7.0 miSSW (210°)5.8 mphOvercast
11:55 PM33.3 °F30.7 °F90 %29.63 in7.0 miSW (220°)5.8 mphMostly Cloudy
Hourly data recorded from KSJX, located miles away from Beaver Island, Michigan







STORIES FROM OUR PARTNERS